TimeMST,TemperatureF,Dew PointF,Humidity,Sea Level PressureIn,VisibilityMPH,Wind Direction,Wind SpeedMPH,Gust SpeedMPH,PrecipitationIn,Events,Conditions,WindDirDegrees,DateUTC
12:53 AM,26.1,16.0,66,30.08,10.0,WSW,4.6,-,N/A,,Clear,250,2012-11-15 07:53:00
1:53 AM,27.0,17.1,66,30.10,10.0,WSW,4.6,-,N/A,,Clear,250,2012-11-15 08:53:00
2:53 AM,27.0,17.1,66,30.13,10.0,WSW,6.9,-,N/A,,Clear,240,2012-11-15 09:53:00
3:53 AM,26.1,17.1,69,30.14,10.0,WSW,6.9,-,N/A,,Clear,240,2012-11-15 10:53:00
5:53 AM,35.1,27.0,72,30.20,10.0,North,5.8,-,N/A,,Clear,350,2012-11-15 12:53:00
6:53 AM,37.0,30.0,76,30.25,10.0,NNW,5.8,-,N/A,,Clear,340,2012-11-15 13:53:00
7:53 AM,42.1,32.0,67,30.30,10.0,WNW,5.8,-,N/A,,Clear,300,2012-11-15 14:53:00
8:53 AM,48.0,32.0,54,30.32,10.0,NNW,8.1,-,N/A,,Clear,330,2012-11-15 15:53:00
9:53 AM,52.0,30.0,43,30.34,10.0,North,12.7,-,N/A,,Clear,350,2012-11-15 16:53:00
10:53 AM,55.0,28.0,35,30.34,10.0,North,10.4,18.4,N/A,,Clear,10,2012-11-15 17:53:00
11:53 AM,57.9,27.0,31,30.30,10.0,North,10.4,20.7,N/A,,Clear,10,2012-11-15 18:53:00
12:53 PM,59.0,26.1,28,30.28,10.0,North,12.7,18.4,N/A,,Clear,10,2012-11-15 19:53:00
1:53 PM,59.0,26.1,28,30.28,10.0,NNE,12.7,-,N/A,,Clear,20,2012-11-15 20:53:00
2:53 PM,59.0,26.1,28,30.28,10.0,NE,11.5,-,N/A,,Clear,40,2012-11-15 21:53:00
3:53 PM,57.0,26.1,30,30.30,10.0,NNE,10.4,-,N/A,,Clear,30,2012-11-15 22:53:00
4:53 PM,48.9,25.0,39,30.34,10.0,ENE,5.8,-,N/A,,Clear,60,2012-11-15 23:53:00
5:53 PM,42.1,25.0,51,30.35,10.0,NE,3.5,-,N/A,,Clear,40,2012-11-16 00:53:00
6:53 PM,37.9,25.0,60,30.36,10.0,East,6.9,-,N/A,,Clear,100,2012-11-16 01:53:00
7:53 PM,37.9,25.0,60,30.38,10.0,Calm,Calm,-,N/A,,Clear,0,2012-11-16 02:53:00
8:53 PM,34.0,24.1,67,30.39,10.0,Calm,Calm,-,N/A,,Clear,0,2012-11-16 03:53:00
9:53 PM,33.1,24.1,70,30.38,10.0,Calm,Calm,-,N/A,,Clear,0,2012-11-16 04:53:00
10:53 PM,28.0,21.0,75,30.38,10.0,Calm,Calm,-,N/A,,Clear,0,2012-11-16 05:53:00
11:53 PM,27.0,21.0,78,30.37,10.0,Calm,Calm,-,N/A,,Clear,0,2012-11-16 06:53:00